Diese Seite ist kein Flugwetterbriefingsystem zum Zwecke der meteorologischen Flugvorbereitung gemäß den Durchführungsverordnungen Nr. 2018/1139 (Annex V) & 923/2012 (SERA.2010). Für diesen Zweck nutzen Sie bitte die speziellen Flugwetterbriefingsysteme oder die individuelle Flugwetterberatung.

 Unser Platzwetter:

(um das Bild zu aktualisieren oder bei unvollständig geladenem Bild den Reload-Button des Browsers drücken)

[Quelle: ADDS]
METAR
ETNN 120420Z 16002KT 9999 14/09 Q1019 BLU+BLU+ =
ETNN 120405Z 1205/1214 10008KT 9999 NSW FEW360 BY ETGL
TAF
ETNN 120405Z 1205/1214 10008KT 9999 NSW FEW360 BY ETGL =
SR / SS: 04:16 / 19:00 UTC (Vettweiss-Soller 2022-08-12)

Aktuelle Windrichtung in Relation zu unserer Bahn:

 

Aktuelle Dichtehöhe bei uns am Platz: 320 ft.

PPR beachten

50 44 52 N / 06 34 01 E
525 ft
14/32 Gras
360 m x 20 m
136.090 MHz
02424/901444

Kontakt:

LSG Gertrudenhof e.V.
c/o Franz-Josef Schmidt
An der Gärtnerei 13
52388 Nörvenich
02426/9593651
0175/2660491

PPR: s.o. oder
01575/3499762
02424/901444

in Lokalzeit:
06:15
21:02